SPIRALE A 1 33751U 09008C 25182.39281196 .00002835 00000-0 10847-2 0 9993 2 33751 2.0432 258.9119 5588249 236.9184 57.1072 4.62038028245894 SPIRALE B 1 33752U 09008D 25182.31247065 .00003102 00000-0 10100-2 0 9993 2 33752 1.8728 220.5278 6712642 304.9371 9.2003 3.01199818157411 SAPPHIRE 1 39088U 13009C 25182.47723068 .00000086 00000-0 45292-4 0 9996 2 39088 98.4151 5.5037 0010613 207.9185 152.1432 14.35079435646275